User: anonymous   Login
Location: Caltech
(34.1382°N, 118.1253°W)
Time: 08:54:14
(UTC-07:00)
Language:

Uribyol 2 - Orbit

View from above orbital plane
View from above orbital plane
View from above satellite
View from above satellite

Ground track
Ground track

The orbit data is extracted from the following two-line orbital elements,

1 22828U 93061F   16209.91237496 +.00000015 +00000-0 +23129-4 0  9997
2 22828 098.7475 165.4756 0010292 152.9860 207.1860 14.30598009159348
Epoch (UTC): 27 July 2016 21:53:49
Eccentricity: 0.0010292
inclination: 98.7475°
perigee height: 782 km
apogee height: 797 km
right ascension of ascending node: 165.4756°
argument of perigee: 152.9860°
revolutions per day: 14.30598009
mean anomaly at epoch: 207.1860°
orbit number at epoch: 15934

The dashed part of the orbit path shows where the satellite is in the earth's shadow,  

DLR